This demonstration page uses our WeatherBlox Daily Observations layout. Learn more.

Left ArrowRight Arrow

31.84235, -102.49876

Hourly Observations for March 19, 2018

Temp ( °F °C ) Dew Point ( °F °C ) Humidity (%) Winds ( mph kmh ) Pressure ( in mb ) Visibility ( mi km ) Precip ( " mm )
12:53 am 00:53 Clear 61 16.1 16 -8.9 17 17 NNW 18 30 29.70 1006 10 16 0.00 0.00
1:53 am 01:53 Clear 56 13.3 10 -12.2 16 16 NNW 14 22 29.76 1008 10 16 0.00 0.00
2:53 am 02:53 Clear 52 11.1 8 -13.3 17 17 NNW 15 24 29.78 1008 10 16 0.00 0.00
3:53 am 03:53 Clear 50 10 8 -13.3 18 18 NW 15 24 29.77 1008 10 16 0.00 0.00
4:53 am 04:53 Clear 49 9.4 6 -14.4 17 17 NNW 14 22 29.77 1008 10 16 0.00 0.00
5:53 am 05:53 Clear 47 8.3 6 -14.4 19 19 NW 10 17 29.80 1009 10 16 0.00 0.00
6:53 am 06:53 Clear 48 8.9 6 -14.4 18 18 NW 14 22 29.81 1010 10 16 0.00 0.00
7:53 am 07:53 Clear 47 8.3 7 -13.9 19 19 NNW 16 26 29.84 1011 10 16 0.00 0.00
8:53 am 08:53 Sunny 50 10 5 -15 16 16 NW 18 30 29.86 1011 10 16 0.00 0.00
9:53 am 09:53 Sunny 55 12.8 5 -15 13 13 NW 26 43 29.89 1012 10 16 0.00 0.00
10:53 am 10:53 Sunny 59 15 6 -14.4 12 12 NNW 18 30 29.88 1012 10 16 0.00 0.00
11:53 am 11:53 Sunny 62 16.7 9 -12.8 12 12 NW 17 28 29.89 1012 10 16 0.00 0.00
12:53 pm 12:53 Sunny 65 18.3 12 -11.1 13 13 NW 16 26 29.88 1012 10 16 0.00 0.00
1:53 pm 13:53 Sunny 67 19.4 14 -10 13 13 N 18 30 29.85 1011 10 16 0.00 0.00
2:53 pm 14:53 Sunny 69 20.6 10 -12.2 10 10 WNW 14 22 29.84 1010 10 16 0.00 0.00
3:53 pm 15:53 Sunny 69 20.6 8 -13.3 9 9 NW 10 17 29.82 1010 10 16 0.00 0.00
4:53 pm 16:53 Sunny 71 21.7 1 -17.2 6 6 NW 14 22 29.81 1009 10 16 0.00 0.00
5:53 pm 17:53 Sunny 70 21.1 -1 -18.3 6 6 W 8 13 29.80 1009 10 16 0.00 0.00
6:53 pm 18:53 Sunny 69 20.6 -6 -21.1 5 5 WNW 10 17 29.81 1010 10 16 0.00 0.00
7:49 pm 19:49 Mostly Sunny 64 18 -6 -21 5 5 WNW 10 17 29.80 1009 10 16 0.00 0.00
7:53 pm 19:53 Mostly Sunny 65 18.3 -5 -20.6 6 6 NW 9 15 29.83 1010 10 16 0.00 0.00
8:53 pm 20:53 Clear 59 15 -1 -18.3 8 8 NW 7 11 29.86 1011 10 16 0.00 0.00
9:53 pm 21:53 Clear 55 12.8 0 -17.8 10 10 NNE 8 13 29.88 1012 10 16 0.00 0.00
10:53 pm 22:53 Clear 53 11.7 12 -11.1 19 19 NE 8 13 29.90 1013 10 16 0.00 0.00
11:53 pm 23:53 Clear 52 11.1 20 -6.7 28 28 NE 16 26 29.94 1014 10 16 0.00 0.00

Powered by AerisWeather